sat.trackr.live / text

‹ back to catalog

OUT OF THE BOX (OOTB)

NORAD 68428 · 2026-067N

PAYLOAD ACTIVE UNKNOWN

§ Identity

Operator
Country
FR
Launch date
2026-03-30
Launch site
AFWTR
Launch vehicle
Mass (kg)
RCS (m²)

External: N2YO · Heavens-Above · Gunter

§ Orbital elements

Epoch: 2026-09-20T03:17:02.734944Z

Period
94.80 min
Inclination
97.4684°
Eccentricity
0.0002959
Mean motion
15.19026823 rev/d
Perigee alt
506.7 km
Apogee alt
510.8 km
Semi-major
6,886.9 km
B*
1.0087e-4
RAAN
220.4453°
Arg perigee
59.9306°
Mean anomaly
300.2222°
Rev number
2,635

§ Raw data

OUT OF THE BOX (OOTB)1 68428U 26067N   26263.13683721  .00002044  00000+0  10087-3 0  99972 68428  97.4684 220.4453 0002959  59.9306 300.2222 15.19026823 26359

JSON: /api/v1/satellites/68428 · /tle

For live sub-satellite position, see the globe view (requires WebGL).

§ Visibility from observer

Set your observer location to see the next 7 days of passes ≥ 10°. The values pass through the URL so the page stays shareable.

No JS? Fill the form by hand. The geolocation button needs JavaScript.

§ Radio — SatNOGS DB

ModeDescriptionDownlinkUplink
GMSK Mode U - Transmitter 402.360 MHz

1 transmitter · refreshed weekly from db.satnogs.org